Regional Weather Roundup
Issued by NWS

Home | Current Version | Previous Version | Graphics & Text | Print | Product List | Glossary On
Versions: 1 2 3 4 5 6 7 8 9 10 11 12 13 14 15 16 17 18 19 20 21 22 23 24 25 26 27 28 29 30 31 32 33 34 35 36 37 38 39 40 41 42 43 44 45 46 47 48 49 50
000
ASUS45 KBOU 210707
RWRCO

WEATHER ROUNDUP FOR COLORADO
NATIONAL WEATHER SERVICE DENVER/BOULDER CO
100 AM MDT TUE APR 21 2015

NOTE: "FAIR" INDICATES FEW OR NO CLOUDS BELOW 12000 FEET WITH NO
SIGNIFICANT WEATHER AND/OR OBSTRUCTIONS TO VISIBILITY.

COZ001>005-013-030-031-210800-
...NORTHWEST COLORADO...

CITY           SKY/WX    TMP DP  RH WIND       PRES   REMARKS
CRAIG          CLEAR     34  28  79 CALM      29.97R
HAYDEN         CLEAR     36  28  75 E10       29.98R
MEEKER         CLEAR     36  30  79 NE5       29.98R
MOUNT WERNER   NOT AVBL
STEAMBOAT SPGS CLEAR     33  28  81 N3        30.00R
WALDEN         CLOUDY    30  25  80 SE5       30.00S WCI  25
$$

COZ006>008-011-210800-
...WEST CENTRAL VALLEYS...

CITY           SKY/WX    TMP DP  RH WIND       PRES   REMARKS
GRAND JUNCTION PTCLDY    49  35  58 E13       29.92R
MONTROSE       CLEAR     45  33  63 SE12      29.98R
EAGLE          CLEAR     32  30  93 E3        30.06R
RIFLE          CLEAR     39  31  72 SW6       29.98R
DELTA          PTCLDY    46  35  66 E8        29.96R
NUCLA          CLEAR     43  30  61 E12       30.00S
$$

COZ017>023-064>068-210800-
...SOUTHWEST COLORADO...

CITY           SKY/WX    TMP DP  RH WIND       PRES   REMARKS
DURANGO        CLEAR     33  17  51 CALM      30.00S
CORTEZ         CLEAR     33  24  69 E5        29.99R WCI  29
PAGOSA SPRINGS CLEAR     30  18  61 CALM      30.05S
TELLURIDE      CLEAR     35  23  61 SE5       30.12R WCI  31
WOLF CREEK PAS PTCLDY    27  12  54 SW3       30.21R
$$

COZ009-010-012-014-032>034-037-058>063-210800-
...CENTRAL COLORADO...

CITY           SKY/WX    TMP DP  RH WIND       PRES   REMARKS
ASPEN          PTCLDY    33  27  78 S5        30.03F WCI  29
BUENA VISTA    PTCLDY    28  25  90 W7        30.07S WCI  21
COPPER MTN     NOT AVBL
BERTHOUD PASS  FAIR      18  10  73 NW35G45   30.07F HAZE    WCI  -3
COTTONWOOD PAS PTCLDY    34  21  60 NW5       30.09R WCI  30
GUNNISON       CLEAR     30  21  69 CALM      30.09R
KREMMLING      PTCLDY    30  27  86 E6        30.04S WCI  24
LEADVILLE      CLEAR     19  17  92 CALM      30.07S
MONARCH PASS   CLEAR     23  18  80 MISG      30.23S
SALIDA         PTCLDY    34  29  80 W5        30.13F WCI  30
SUNLIGHT       PTCLDY    32  27  80 CALM      30.14S
WILKERSON PASS CLOUDY    25  19  80 NW9       30.12S WCI  15
$$

COZ069>075-210800-
...SAN LUIS VALLEY/SANGRE DE CRISTO MOUNTAINS...

CITY           SKY/WX    TMP DP  RH WIND       PRES   REMARKS
ALAMOSA        CLEAR     29  22  75 W6        30.05R WCI  23
LA VETA PASS   CLEAR     28  23  80 W5        30.11S WCI  23
SAGUACHE       CLEAR     30  27  86 NW9       30.07R WCI  22
$$

COZ035-036-038>040-210800-
...NORTHERN COLORADO FRONT RANGE...

CITY           SKY/WX    TMP DP  RH WIND       PRES   REMARKS
DENVER INTL AP PTCLDY    36  33  89 S9        29.96R
DMNS CITY PARK   N/A     39  35  84 SE3       29.96S
AURORA         PTCLDY    38  33  80 S6        29.97R
FRONT RANGE AP PTCLDY    37  34  87 S6        29.97R
ERIE MUNI ARPT CLOUDY    41  37  84 CALM      29.96F
BOULDER MUN AP PTCLDY    41  32  70 SW6       29.95F
CENTENNIAL     CLEAR     37  32  82 SE6       29.96S
BROOMFIELD     PTCLDY    41  36  81 NW7       29.97S
FORT COLLINS   PTCLDY    43  34  70 CALM      29.96S
LONGMONT       CLOUDY    44  36  73 W5        29.96F
$$

COZ041-046-047-076>085-087-088-210800-
...PIKES PEAK/PALMER DIVIDE AND SOUTHERN FOOTHILLS...

CITY           SKY/WX    TMP DP  RH WIND       PRES   REMARKS
COLO. SPRINGS  CLEAR     38  32  79 E7        30.00F
A. F. ACADEMY  CLEAR     32  30  94 N6        29.99F WCI  26
ELLICOTT       CLEAR    N/A N/A N/A CALM      29.98F
FALCON         CLEAR     33  31  92 W3        30.01F
FORT CARSON    CLEAR     40  34  77 SW8       29.98S
LIMON          CLEAR     29  27  92 N3        29.97F
MONUMENT HILL  CLEAR     32  32 100 SW9       29.98F WCI  24
TRINIDAD       CLOUDY    42  35  76 SW7       30.03S
$$

COZ042>045-048>051-090-091-210800-
...NORTHEAST COLORADO...

CITY           SKY/WX    TMP DP  RH WIND       PRES   REMARKS
GREELEY ARPT   CLEAR     39  28  65 CALM      29.96S
AKRON          CLEAR     37  26  64 W10       29.93S
BURLINGTON     CLEAR     37  30  75 W8        29.95R
WRAY           CLEAR     34  30  85 W6        29.92S WCI  29
STERLING       CLEAR     32  30  93 SW7       29.93R WCI  26
HOLYOKE        CLEAR     36  32  87 W7        29.92S
FORT MORGAN    CLEAR     37  28  69 W6        29.94F
$$

COZ086-089-092>099-210800-
...SOUTHEAST COLORADO...

CITY           SKY/WX    TMP DP  RH WIND       PRES   REMARKS
PUEBLO         CLEAR     44  38  79 CALM      29.98S
LA JUNTA       CLEAR     45  37  73 W5        29.97S
LAMAR          PTCLDY    45  37  73 CALM      29.94S
SPRINGFIELD      N/A     40  38  93 SW9       29.97S
$$


USA.gov is the U.S. government's official web portal to all federal, state and local government web resources and services.